TimeEET,TemperatureF,Dew PointF,Humidity,Sea Level PressureIn,VisibilityMPH,Wind Direction,Wind SpeedMPH,Gust SpeedMPH,PrecipitationIn,Events,Conditions,WindDirDegrees,DateUTC
12:00 AM,51.8,51.8,100,29.89,-9999.0,SSE,2.3,-,N/A,,Clear,160,2013-03-25 22:00:00
1:00 AM,51.8,51.8,100,29.89,3.7,SSW,3.5,-,N/A,,Unknown,210,2013-03-25 23:00:00
2:00 AM,49,49,100,29.86,4,SSE,4.6,,,,Mist,160,2013-03-26 00:00:00
2:00 AM,50.0,50.0,100,29.83,3.7,SSE,4.6,-,N/A,,Unknown,160,2013-03-26 00:00:00
3:00 AM,48.2,46.4,93,29.83,3.7,SSE,3.5,-,N/A,,Unknown,160,2013-03-26 01:00:00
4:00 AM,48.2,46.4,93,29.83,3.7,SSE,3.5,-,N/A,,Unknown,160,2013-03-26 02:00:00
5:00 AM,46.4,46.4,100,29.83,3.7,South,4.6,-,N/A,,Unknown,170,2013-03-26 03:00:00
6:00 AM,51.8,48.2,88,29.80,3.7,SSE,11.5,-,N/A,,Unknown,150,2013-03-26 04:00:00
7:00 AM,55.4,48.2,77,29.80,-9999.0,SSE,12.7,-,N/A,,Clear,150,2013-03-26 05:00:00
8:00 AM,63,45,41,29.81,6,SSE,12.7,,,,,160,2013-03-26 06:00:00
8:00 AM,62.6,44.6,52,29.80,-9999.0,SSE,12.7,-,N/A,,Clear,160,2013-03-26 06:00:00
9:00 AM,69.8,42.8,38,29.80,-9999.0,SSE,11.5,-,N/A,,Clear,160,2013-03-26 07:00:00
10:00 AM,80.6,33.8,18,29.77,2.5,South,12.7,-,N/A,,Sand,170,2013-03-26 08:00:00
11:00 AM,87.8,19.4,8,29.74,2.5,South,18.4,-,N/A,,Sand,190,2013-03-26 09:00:00
12:00 PM,91.4,14.0,6,29.74,2.5,South,16.1,-,N/A,,Sand,190,2013-03-26 10:00:00
1:00 PM,93.2,6.8,4,29.68,2.5,SSW,13.8,-,N/A,,Sand,200,2013-03-26 11:00:00
2:00 PM,95.0,-5.8,4,29.65,2.5,SW,12.7,-,N/A,,Sand,230,2013-03-26 12:00:00
3:00 PM,93.2,-7.6,4,29.65,1.9,West,16.1,-,N/A,,Sand,260,2013-03-26 13:00:00
4:00 PM,91.4,-0.4,4,29.68,2.5,WSW,15.0,-,N/A,,Sand,250,2013-03-26 14:00:00
5:00 PM,80.6,41.0,24,29.68,2.5,NW,10.4,-,N/A,,Unknown,310,2013-03-26 15:00:00
7:00 PM,64.4,57.2,77,29.80,3.7,WNW,17.3,-,N/A,,Unknown,300,2013-03-26 17:00:00
8:00 PM,64,57,72,29.84,6,WNW,12.7,,,,,300,2013-03-26 18:00:00
8:00 PM,64.4,57.2,77,29.83,-9999.0,WNW,12.7,-,N/A,,Clear,300,2013-03-26 18:00:00
9:00 PM,64.4,55.4,73,29.86,-9999.0,WNW,12.7,-,N/A,,Clear,300,2013-03-26 19:00:00
10:00 PM,62.6,55.4,77,29.89,-9999.0,WNW,9.2,-,N/A,,Clear,300,2013-03-26 20:00:00
11:00 PM,62.6,55.4,77,29.89,-9999.0,NW,2.3,-,N/A,,Clear,310,2013-03-26 21:00:00